User: anonymous   Login
Location: Mt. Chestnut Observatory
(40.9038°N, 79.9956°W)
Time: 09:45:12
(UTC-04:00)
Language:

Cosmos 2034 Rocket - Orbit

View from above orbital plane
View from above orbital plane
View from above satellite
View from above satellite

Ground track
Ground track

The orbit data is extracted from the following two-line orbital elements,

1 20150U 89059B   17146.48913788 +.00000074 +00000-0 +60770-4 0  9991
2 20150 082.9388 110.1918 0028716 346.0386 153.4063 13.75636634397198
Epoch (UTC): 26 May 2017 11:44:21
Eccentricity: 0.0028716
inclination: 82.9388°
perigee height: 958 km
apogee height: 1000 km
right ascension of ascending node: 110.1918°
argument of perigee: 346.0386°
revolutions per day: 13.75636634
mean anomaly at epoch: 153.4063°
orbit number at epoch: 39719

The dashed part of the orbit path shows where the satellite is in the earth's shadow,  

DLR